Regional Weather Roundup
Issued by NWS Midland/Odessa, TX

Skip options and go directly to product.
Home | Oldest Version | Next Version | Current Version | All | Text Only | Save Text | Print | Product List | Glossary On

Skip product version selection by date and time.   
345
ASUS44 KMAF 280001
RWRMAF
MIDLAND AREA WEATHER ROUNDUP
NATIONAL WEATHER SERVICE MIDLAND TX
700 PM CDT MON JUL 27 2015

...IN SOUTHWEST TEXAS AND SOUTHEAST NEW MEXICO...

CITY           SKY/WX    TMP DP  RH WIND       PRES   REMARKS
ALPINE         CLOUDY    82  58  44 S7G16     30.07R
ANDREWS        PTSUNNY   98  55  23 SE12G23   29.88S
ARTESIA        PTSUNNY   99  54  22 S16       29.87F
BIG SPRING     SUNNY     98  58  26 SE12G17   29.88S
CARLSBAD       PTSUNNY   99  53  21 SW10      29.85F
DRYDEN           N/A    100  58  24 SE13G22   29.82S
FORT STOCKTON  LGT RAIN  97  61  30 SW7       29.86F
GUAD PASS      PTSUNNY   90  55  30 S8        30.08F
HOBBS          PTSUNNY   97  50  20 SE13G20   29.90F
MARFA          CLOUDY    73  66  78 E6        30.05F
MIDLAND AIRPK  SUNNY    103  51  17 SE15G22   29.86F HX 100
MIDLAND INTL   SUNNY    100  54  21 SE14      29.86F
ODESSA         MOSUNNY  101  54  20 SE22      29.87F
PECOS          PTSUNNY   93  58  30 S7        29.84S
PRESIDIO       FAIR     101  54  20 SE13G21   29.83S
SEMINOLE       MOSUNNY   99  53  21 SE13      29.89S
SNYDER         SUNNY     96  64  34 SE10      29.88F
WINK           CLOUDY    98  58  26 S17       29.83S
$$
...OTHER STATIONS IN TEXAS...

CITY           SKY/WX    TMP DP  RH WIND       PRES   REMARKS
ABILENE        SUNNY     97  63  32 SE15      29.87F
AMARILLO       MOSUNNY   92  61  35 S22G28    29.92F
AUSTIN         PTSUNNY   95  67  39 SE16      29.84F
BROWNSVILLE    SUNNY     88  74  63 SE17G25   29.85S
CORPUS CHRISTI MOSUNNY   90  75  61 SE20      29.85F HX 100
DALLAS FTW     PTSUNNY   96  65  35 S13       29.84F
DEL RIO        SUNNY     99  61  28 E14       29.78S
EL PASO        MOSUNNY   98  49  18 SW9       29.90F
HOUSTON INT    MOSUNNY   93  72  50 SW7       29.88S HX 101
LUBBOCK        MOSUNNY   95  61  32 SE16      29.91F
SAN ANGELO     MOSUNNY  100  58  24 SE8       29.83S
SAN ANTONIO    MOSUNNY   95  67  39 SE15      29.85F
WACO           SUNNY     96  65  35 SE14      29.85F
WICHITA FALLS  NOT AVBL
$$
...OTHER LOCATIONS IN NEW MEXICO...

CITY           SKY/WX    TMP DP  RH WIND       PRES   REMARKS
ALAMAGORDO     MOSUNNY   99  46  16 SW8       29.92F
ALBUQUERQUE    PTSUNNY   90  43  19 CALM      30.01F
CANNON AFB     SUNNY     93  57  29 S16G24    29.93F
CLOVIS         SUNNY     93  57  29 S15G24    29.95F
HOLLOMAN AFB   NOT AVBL
ROSWELL        MOSUNNY  101  49  17 S10       29.87S
RUIDOSO          N/A    N/A N/A N/A MISG        N/A
SANTA FE       SUNNY     86  44  23 W12       30.09F
TRUTH OR CONSE CLOUDY    87  50  27 NW17      29.98S
TUCUMCARI      MOSUNNY   96  48  19 SW12      29.89F
$$

USA.gov is the U.S. government's official web portal to all federal, state and local government web resources and services.